TimeEST,TemperatureF,Dew PointF,Humidity,Sea Level PressureIn,VisibilityMPH,Wind Direction,Wind SpeedMPH,Gust SpeedMPH,PrecipitationIn,Events,Conditions,WindDirDegrees,DateUTC
12:56 AM,41.0,28.9,62,29.91,10.0,West,6.9,-,N/A,,Partly Cloudy,280,2012-11-04 04:56:00
1:56 AM,39.0,30.0,70,29.91,10.0,West,3.5,-,N/A,,Partly Cloudy,270,2012-11-04 05:56:00
1:56 AM,37.0,30.0,76,29.91,10.0,West,4.6,-,N/A,,Clear,260,2012-11-04 06:56:00
2:56 AM,36.0,30.0,79,29.90,10.0,West,5.8,-,N/A,,Clear,270,2012-11-04 07:56:00
3:56 AM,35.1,30.0,82,29.91,10.0,West,5.8,-,N/A,,Clear,270,2012-11-04 08:56:00
4:56 AM,34.0,28.9,82,29.92,10.0,WSW,5.8,-,N/A,,Clear,250,2012-11-04 09:56:00
5:56 AM,33.1,28.9,85,29.93,10.0,WSW,6.9,-,N/A,,Clear,250,2012-11-04 10:56:00
6:56 AM,35.1,30.9,85,29.94,10.0,WSW,6.9,-,N/A,,Partly Cloudy,250,2012-11-04 11:56:00
7:56 AM,41.0,33.1,73,29.95,10.0,West,6.9,-,N/A,,Partly Cloudy,270,2012-11-04 12:56:00
8:56 AM,45.0,30.9,58,29.95,10.0,NW,13.8,-,N/A,,Partly Cloudy,320,2012-11-04 13:56:00
9:56 AM,46.9,32.0,56,29.94,10.0,WNW,12.7,-,N/A,,Scattered Clouds,300,2012-11-04 14:56:00
10:56 AM,48.0,30.9,52,29.93,10.0,NW,9.2,-,N/A,,Scattered Clouds,320,2012-11-04 15:56:00
11:56 AM,50.0,32.0,50,29.91,10.0,NNW,11.5,-,N/A,,Partly Cloudy,330,2012-11-04 16:56:00
12:56 PM,51.1,30.9,46,29.90,10.0,NW,9.2,-,N/A,,Scattered Clouds,310,2012-11-04 17:56:00
1:56 PM,52.0,30.9,45,29.89,10.0,NW,10.4,-,N/A,,Scattered Clouds,320,2012-11-04 18:56:00
2:56 PM,50.0,30.9,48,29.90,10.0,WNW,9.2,-,N/A,,Scattered Clouds,300,2012-11-04 19:56:00
3:56 PM,48.9,30.9,50,29.90,10.0,WNW,6.9,-,N/A,,Mostly Cloudy,300,2012-11-04 20:56:00
4:56 PM,50.0,30.9,48,29.90,10.0,WNW,4.6,-,N/A,,Mostly Cloudy,300,2012-11-04 21:56:00
5:56 PM,48.9,30.9,50,29.92,10.0,North,6.9,-,N/A,,Mostly Cloudy,10,2012-11-04 22:56:00
6:56 PM,48.0,32.0,54,29.93,10.0,North,13.8,-,N/A,,Overcast,10,2012-11-04 23:56:00
7:56 PM,44.1,30.0,58,29.95,10.0,North,15.0,-,N/A,,Overcast,360,2012-11-05 00:56:00
8:56 PM,44.1,30.0,58,29.96,10.0,North,10.4,-,N/A,,Overcast,360,2012-11-05 01:56:00
9:56 PM,43.0,28.9,58,29.97,10.0,North,13.8,-,N/A,,Overcast,360,2012-11-05 02:56:00
10:56 PM,43.0,28.9,58,29.96,10.0,North,10.4,-,N/A,,Overcast,360,2012-11-05 03:56:00